Probability
6 6 23 39 29 29 29 26 26 23 16 19 13 19 16 16 13 13 16 13 16 19 19 19 13 6 6 6 6 3 3 6 6 6 6 13 13 3 3 6 0 0 3
6 6 26 35 32 32 26 26 26 23 23 26 19 16 16 16 10 13 16 16 16 16 16 19 13 6 6 6 6 6 3 3 6 0 0 3 3 3 3 3 3 0 0
6 6 16 35 35 35 29 23 23 19 23 23 16 16 16 13 13 16 10 13 13 6 6 6 10 10 6 6 3 3 3 6 0 0 0 0 0 3 0 3 6 3 0
6 6 10 32 29 32 26 23 23 23 23 23 23 19 16 13 16 10 10 13 13 13 6 6 6 3 3 3 3 3 3 6 0 0 0 0 0 3 3 3 3 3 0
3 6 10 29 32 26 26 26 23 23 19 23 23 23 23 19 10 10 10 13 13 10 6 6 6 3 3 3 3 6 6 0 0 0 0 0 0 0 3 3 3 3 0
0 6 10 19 23 26 26 19 19 19 19 23 23 23 23 16 16 16 19 19 16 10 10 10 6 3 3 3 3 3 6 0 0 0 0 0 0 0 3 3 3 3 3
0 0 6 19 19 16 23 23 23 23 19 23 16 19 19 16 16 19 16 19 13 10 6 6 6 3 3 3 3 3 3 0 0 0 0 0 0 3 3 3 6 3 3
0 0 3 10 10 13 16 19 23 23 23 23 19 19 13 13 16 13 16 13 10 6 6 6 3 3 3 3 3 3 3 0 0 0 0 0 0 0 0 0 3 6 3
0 0 3 3 3 10 6 13 16 19 23 19 16 16 16 13 10 13 10 10 6 6 10 10 3 3 3 3 3 3 0 0 0 0 0 0 0 0 0 0 0 3 3
0 0 0 3 0 0 6 6 6 6 10 10 10 10 6 6 6 6 6 6 6 6 6 3 3 3 3 3 3 3 0 0 0 0 0 0 0 0 0 0 3 0 0
0 0 0 0 0 0 0 3 6 6 3 6 6 3 3 3 6 6 6 6 6 3 3 3 3 3 3 3 3 0 0 0 0 0 0 0 3 3 0 0 0 0 0
0 0 0 0 0 0 0 0 3 3 3 3 6 3 3 3 3 3 3 3 3 3 3 3 3 3 3 3 0 0 0 0 0 0 0 0 3 0 0 0 0 0 0
0 0 0 0 0 0 0 0 3 0 3 3 3 3 3 3 3 3 3 3 3 3 3 3 3 3 3 3 0 0 0 0 0 0 0 0 3 0 0 0 0 0 0
0 0 0 0 0 0 0 0 0 0 3 3 0 0 0 0 0 3 3 3 3 3 3 3 3 3 3 3 3 0 0 0 0 0 0 0 3 3 0 0 0 0 0
0 0 0 0 0 0 0 0 0 0 0 0 0 0 0 0 0 3 3 3 3 3 3 3 3 3 3 0 0 0 0 0 0 0 0 0 0 3 3 0 0 0 0
0 0 0 0 0 0 0 0 0 0 0 0 0 0 0 0 0 0 3 3 3 3 3 3 0 0 0 0 0 0 0 0 0 0 0 0 0 0 3 3 0 0 0
0 0 0 0 0 0 0 0 0 0 0 0 0 0 0 0 0 0 3 3 3 3 0 0 0 0 0 0 0 0 0 0 0 0 0 0 0 0 0 3 0 0 0
0 0 0 0 0 0 0 0 0 0 0 0 0 0 0 0 0 0 0 0 0 0 0 0 0 0 0 0 0 0 0 0 0 0 0 0 0 0 0 0 0 0 0
0 0 0 0 0 0 0 0 0 0 0 0 0 0 0 0 0 0 0 0 0 0 0 0 0 0 0 0 0 0 0 0 0 0 0 0 0 0 0 0 0 0 0
0 0 0 0 0 0 0 0 0 0 0 0 0 0 0 0 0 0 0 0 0 0 0 0 0 0 0 0 0 0 0 0 0 0 0 0 0 0 0 0 0 0 0
0 0 0 0 0 0 0 0 0 0 0 0 0 0 0 0 0 0 0 0 0 0 0 0 0 0 0 0 0 0 0 0 0 0 0 0 0 0 0 0 0 0 0
0 0 0 0 0 0 0 0 0 0 0 0 0 0 0 0 0 0 0 0 0 0 0 0 0 0 0 0 0 0 0 0 0 0 0 0 0 0 0 0 0 0 0
0 0 0 0 0 0 0 0 0 0 0 0 0 0 0 0 0 0 0 0 0 0 0 0 0 0 0 0 0 0 0 0 0 0 0 0 0 0 0 0 0 0 0
0 0 0 0 0 0 0 0 0 0 0 0 0 0 0 0 0 0 0 0 0 0 0 0 0 0 0 0 0 0 0 0 0 0 0 0 0 0 0 0 0 0 0
0 0 0 0 0 0 0 0 0 0 0 0 0 0 0 0 0 0 0 0 0 0 0 0 0 0 0 0 0 0 0 0 0 0 0 0 0 0 0 0 0 0 0
0 0 0 0 0 0 0 0 0 0 0 0 0 0 0 0 0 0 0 0 0 0 0 0 0 0 0 0 0 0 0 0 0 0 0 0 0 0 0 0 0 0 0
Height
5828 5829 5830 5831 5832 5833 5834 5835 5836 5837 5837 5838 5839 5840 5841 5842 5843 5844 5845 5846 5847 5848 5848 5849 5850 5850 5851 5851 5852 5852 5852 5852 5853 5853 5854 5855 5855 5856 5856 5857 5857 5857 5857
5825 5826 5827 5828 5829 5831 5832 5833 5834 5834 5835 5836 5837 5838 5839 5840 5841 5842 5843 5844 5845 5846 5847 5847 5848 5849 5850 5850 5850 5851 5851 5851 5852 5853 5853 5854 5854 5855 5855 5856 5856 5856 5856
5822 5823 5824 5825 5826 5828 5829 5830 5831 5832 5832 5833 5834 5835 5836 5837 5838 5840 5841 5842 5843 5844 5845 5846 5846 5847 5848 5848 5849 5849 5850 5850 5851 5851 5852 5853 5853 5854 5854 5854 5855 5855 5855
5819 5820 5821 5821 5823 5824 5825 5827 5828 5829 5830 5830 5831 5832 5833 5835 5836 5837 5838 5839 5841 5842 5843 5844 5844 5845 5846 5847 5847 5848 5848 5849 5849 5850 5851 5851 5852 5852 5853 5853 5853 5853 5853
5815 5816 5817 5818 5819 5821 5822 5823 5824 5825 5826 5827 5828 5829 5830 5831 5833 5834 5835 5837 5838 5839 5840 5841 5842 5843 5844 5844 5845 5845 5846 5847 5847 5848 5849 5849 5850 5850 5851 5851 5851 5852 5852
5812 5813 5814 5814 5816 5817 5818 5819 5820 5821 5822 5823 5825 5826 5827 5828 5830 5831 5832 5833 5834 5836 5837 5838 5839 5840 5841 5842 5842 5843 5844 5844 5845 5846 5847 5847 5848 5848 5849 5849 5849 5850 5850
5808 5809 5810 5811 5812 5813 5814 5815 5816 5817 5818 5819 5821 5822 5823 5825 5826 5827 5828 5830 5831 5832 5833 5834 5836 5837 5838 5839 5840 5841 5841 5842 5843 5844 5844 5845 5845 5846 5846 5846 5847 5847 5847
5803 5804 5806 5806 5807 5809 5809 5810 5811 5813 5814 5815 5816 5818 5819 5820 5822 5823 5825 5826 5827 5828 5830 5831 5832 5833 5834 5835 5836 5837 5838 5839 5840 5841 5841 5842 5842 5843 5843 5844 5844 5844 5845
5799 5800 5801 5802 5803 5804 5805 5806 5807 5808 5809 5810 5812 5813 5814 5816 5817 5819 5820 5821 5823 5824 5826 5827 5828 5829 5830 5832 5833 5834 5835 5836 5836 5837 5838 5838 5839 5839 5840 5841 5841 5841 5842
5794 5795 5796 5797 5798 5799 5800 5801 5802 5803 5804 5805 5806 5808 5809 5811 5812 5814 5815 5817 5818 5820 5821 5822 5824 5825 5826 5827 5829 5830 5831 5832 5833 5834 5834 5835 5835 5836 5836 5837 5837 5838 5838
5789 5790 5791 5792 5793 5794 5795 5796 5797 5798 5799 5800 5801 5802 5803 5805 5807 5808 5810 5812 5813 5815 5816 5818 5819 5820 5822 5823 5824 5825 5826 5827 5829 5830 5830 5831 5832 5832 5833 5833 5834 5834 5834
5783 5784 5785 5786 5787 5788 5789 5790 5791 5792 5793 5794 5795 5796 5797 5799 5800 5802 5804 5806 5808 5809 5811 5812 5814 5815 5817 5818 5819 5820 5822 5823 5824 5825 5826 5826 5827 5828 5828 5829 5829 5830 5830
5777 5778 5779 5780 5781 5782 5783 5783 5784 5785 5787 5788 5789 5790 5791 5792 5794 5796 5797 5799 5801 5803 5805 5806 5808 5810 5811 5812 5814 5815 5816 5818 5819 5820 5821 5821 5822 5823 5823 5824 5825 5825 5826
5771 5772 5773 5773 5774 5775 5776 5777 5778 5779 5780 5781 5782 5783 5785 5786 5787 5789 5791 5792 5794 5796 5798 5800 5802 5803 5805 5806 5808 5809 5811 5812 5813 5814 5815 5816 5817 5817 5818 5819 5820 5820 5821
5764 5765 5766 5767 5767 5768 5769 5770 5771 5772 5774 5775 5776 5777 5778 5779 5780 5781 5783 5785 5787 5789 5791 5793 5794 5796 5798 5799 5801 5802 5804 5805 5807 5808 5809 5810 5811 5812 5812 5813 5814 5815 5815
5757 5758 5758 5759 5760 5761 5761 5762 5764 5765 5766 5767 5768 5770 5770 5771 5772 5774 5775 5777 5779 5781 5783 5785 5787 5789 5790 5792 5794 5795 5797 5798 5800 5801 5802 5803 5804 5805 5806 5807 5808 5809 5809
5749 5749 5751 5751 5752 5753 5754 5754 5755 5757 5758 5759 5760 5761 5762 5763 5764 5765 5767 5769 5771 5772 5774 5776 5778 5780 5782 5784 5786 5788 5789 5791 5792 5794 5795 5796 5797 5798 5799 5800 5801 5802 5803
5740 5741 5742 5743 5743 5744 5745 5746 5747 5748 5750 5751 5752 5753 5754 5754 5755 5756 5758 5760 5761 5763 5765 5767 5770 5772 5774 5776 5778 5780 5781 5783 5785 5786 5788 5789 5790 5791 5792 5793 5794 5795 5796
5730 5732 5733 5734 5735 5735 5736 5737 5738 5739 5741 5742 5743 5744 5744 5745 5745 5746 5748 5750 5752 5754 5756 5758 5760 5763 5765 5767 5769 5771 5773 5775 5776 5778 5779 5781 5782 5783 5784 5785 5786 5787 5788
5721 5722 5723 5724 5725 5726 5727 5728 5729 5730 5731 5732 5733 5734 5734 5735 5735 5736 5738 5740 5742 5744 5747 5749 5751 5753 5756 5758 5760 5762 5764 5766 5767 5769 5770 5772 5773 5774 5775 5777 5777 5778 5779
5711 5712 5713 5715 5715 5716 5717 5718 5720 5721 5722 5723 5723 5724 5725 5725 5725 5726 5728 5729 5731 5734 5736 5739 5741 5743 5745 5748 5751 5753 5754 5756 5758 5760 5761 5763 5764 5765 5766 5767 5768 5769 5770
5701 5702 5703 5705 5705 5706 5707 5708 5710 5711 5712 5713 5714 5715 5715 5715 5715 5716 5717 5719 5721 5724 5726 5728 5731 5733 5735 5738 5740 5742 5744 5747 5749 5750 5751 5753 5754 5756 5757 5758 5759 5760 5761
5691 5692 5693 5694 5695 5696 5697 5698 5699 5701 5702 5703 5704 5705 5705 5705 5705 5706 5707 5709 5711 5713 5716 5718 5721 5723 5725 5728 5730 5732 5734 5737 5739 5740 5741 5743 5744 5745 5746 5747 5748 5749 5750
5681 5682 5683 5684 5685 5686 5687 5688 5689 5691 5692 5693 5694 5694 5694 5694 5695 5695 5696 5698 5700 5702 5705 5707 5710 5712 5714 5717 5719 5721 5724 5725 5727 5729 5731 5732 5733 5734 5735 5736 5737 5738 5739
5671 5672 5672 5673 5674 5675 5676 5677 5678 5680 5681 5682 5683 5683 5683 5683 5684 5685 5686 5687 5689 5691 5693 5696 5698 5701 5703 5706 5708 5710 5712 5714 5715 5717 5719 5721 5721 5723 5724 5724 5725 5726 5727
5661 5661 5661 5662 5663 5664 5665 5666 5667 5668 5669 5671 5671 5672 5672 5673 5673 5674 5675 5676 5678 5680 5682 5684 5687 5689 5691 5694 5696 5698 5700 5702 5703 5705 5707 5708 5710 5711 5712 5712 5713 5714 5714
Wind_Speed
15 14 14 14 14 14 14 14 13 13 13 13 12 13 13 13 13 12 12 11 11 10 10 9 9 9 8 7 7 6 6 5 5 5 6 5 5 5 5 5 4 4 4
16 16 16 16 16 15 15 15 15 15 14 14 13 14 14 14 14 14 14 13 12 11 10 10 10 10 9 9 8 7 7 7 6 6 6 6 6 6 6 6 5 5 5
17 17 17 18 17 17 17 17 16 16 16 16 16 15 15 15 15 15 14 14 13 12 12 12 11 11 10 10 9 8 8 8 8 7 7 7 7 7 6 6 6 6 6
18 18 18 18 18 18 18 18 18 17 17 17 17 17 16 16 16 16 15 15 15 14 14 14 13 12 12 11 11 10 10 9 9 9 8 8 8 8 8 8 8 8 7
19 19 19 19 19 19 19 19 19 19 19 18 18 18 18 17 17 17 17 16 16 16 15 15 15 14 14 13 13 12 12 11 10 10 10 10 10 10 10 10 9 9 9
20 20 20 20 20 20 20 20 20 20 20 20 20 20 20 19 18 18 18 18 18 17 16 17 16 16 15 15 14 14 13 12 12 11 11 11 11 11 11 11 11 11 10
21 21 21 21 21 21 21 21 21 21 21 21 21 21 21 21 20 20 19 19 19 19 18 18 17 17 16 16 15 15 14 13 12 13 13 12 13 13 12 12 12 12 12
21 21 21 22 22 22 22 23 22 22 22 22 23 23 23 22 22 22 21 20 20 20 20 19 19 18 18 18 17 16 16 15 14 14 14 14 13 13 14 13 13 13 13
23 23 23 22 22 22 23 23 23 23 23 24 24 24 24 24 24 23 23 22 21 21 21 21 20 20 20 20 19 18 18 18 17 16 15 15 15 15 15 15 15 15 15
24 24 24 24 23 24 23 24 24 24 24 25 25 25 25 25 25 25 25 24 24 23 23 22 22 22 21 21 21 21 20 20 19 18 17 17 17 17 17 17 17 17 17
25 26 26 25 25 26 25 25 26 26 26 26 26 27 27 27 28 28 27 27 26 24 24 24 24 23 23 23 23 22 22 22 21 21 20 20 19 19 18 18 18 18 18
26 27 27 27 28 28 27 27 27 28 28 28 28 28 28 28 29 30 30 29 28 27 26 26 26 25 25 25 24 24 24 24 23 23 22 22 21 21 20 20 19 20 20
27 27 28 29 29 29 29 29 29 29 29 29 29 28 29 29 30 31 31 31 31 30 29 29 28 28 27 27 27 26 26 26 26 25 25 24 24 23 23 22 22 22 22
29 28 29 30 30 31 31 31 30 31 30 30 30 30 30 30 31 32 32 32 32 32 32 32 31 30 30 29 29 28 28 28 28 27 27 27 26 25 25 24 24 24 24
30 31 31 31 31 31 32 32 32 32 32 32 32 32 31 31 31 33 34 34 34 34 34 33 33 32 32 32 31 31 30 30 30 29 28 28 27 27 27 26 26 26 26
32 33 33 32 32 33 33 33 34 34 34 34 34 34 34 34 34 33 35 35 36 35 36 35 35 34 34 33 33 32 32 31 31 30 30 29 29 29 28 28 28 28 27
34 34 34 34 34 34 34 35 36 36 36 36 37 37 37 37 37 37 36 37 37 37 37 37 37 36 36 35 35 34 33 33 32 32 32 31 31 30 30 30 30 30 30
36 35 35 36 36 35 36 36 36 37 38 38 39 39 39 39 39 40 39 39 39 39 38 38 38 37 37 37 36 36 36 35 34 34 34 33 32 32 32 32 32 31 31
37 37 37 37 37 37 37 37 38 38 39 40 40 40 41 41 41 41 41 41 40 40 39 39 38 38 38 38 38 37 37 36 36 35 35 35 34 33 33 34 34 34 34
39 39 39 38 38 39 39 39 39 39 39 40 41 41 41 42 42 42 42 42 42 41 41 40 40 40 40 40 39 39 38 37 37 36 36 36 36 35 35 35 35 36 36
40 40 40 40 40 40 40 40 40 40 39 39 40 41 41 42 42 43 43 42 42 43 42 42 42 42 42 42 40 39 39 39 38 38 37 37 38 38 37 37 37 37 38
40 41 40 41 41 40 40 40 40 40 40 40 40 41 41 41 42 42 43 44 43 43 43 43 43 43 42 43 43 41 40 40 40 40 39 39 39 40 39 39 39 40 40
39 40 41 41 40 40 40 39 40 41 40 40 40 41 41 42 42 43 43 44 43 44 44 44 43 43 43 44 44 43 42 42 42 42 41 41 41 41 41 41 41 41 41
38 39 40 40 40 40 40 40 40 41 42 42 41 42 43 43 43 43 44 44 44 44 45 45 44 44 43 44 44 45 45 44 44 43 43 43 43 42 43 43 42 42 42
39 39 40 40 41 41 42 42 42 42 43 43 43 44 44 44 43 44 45 46 46 45 46 47 47 46 45 46 46 46 45 45 44 44 44 44 44 45 45 44 43 44 44
39 40 40 41 41 42 43 43 44 44 44 44 44 45 44 45 45 45 45 46 46 47 48 48 48 48 49 48 47 48 47 47 45 45 45 45 45 45 46 45 44 45 44
Wind_Direction
247 245 243 242 241 240 239 238 238 236 235 237 237 236 236 237 238 238 238 239 240 242 244 246 244 244 243 243 245 249 249 243 238 235 235 237 243 251 258 267 273 278 284
248 247 245 243 242 241 240 239 239 238 237 237 239 241 241 240 241 240 240 239 241 244 245 246 244 244 243 243 241 244 245 242 242 243 244 244 245 249 258 266 270 273 276
250 247 246 244 242 241 241 241 241 241 241 240 241 243 244 243 241 241 242 241 241 243 245 247 247 245 244 243 241 239 242 244 243 246 250 250 250 251 256 262 266 269 271
251 248 247 246 244 242 241 241 241 242 243 244 242 243 244 245 243 242 244 244 244 246 246 248 249 247 245 244 243 241 241 244 246 249 251 252 254 256 257 260 265 264 264
250 249 248 247 246 244 243 243 243 244 244 244 244 244 245 246 245 243 245 246 247 248 249 248 248 247 247 246 244 245 249 251 250 249 250 251 255 258 260 262 264 264 264
251 250 249 248 247 246 245 244 244 244 244 244 245 245 246 247 246 246 246 247 248 248 250 250 249 249 248 248 246 249 251 252 252 251 255 256 257 259 261 263 264 264 266
252 250 248 248 248 247 246 245 245 245 245 245 245 245 246 248 248 247 248 248 248 248 249 251 250 249 248 248 248 250 252 253 255 256 258 261 261 262 263 263 264 263 265
251 250 249 249 248 247 248 246 245 245 246 245 245 246 246 247 248 248 249 249 248 247 247 249 249 249 249 247 247 248 249 252 254 257 259 261 261 262 261 261 262 264 265
253 251 250 250 249 247 247 248 246 246 246 246 246 246 247 247 248 248 249 249 250 249 248 248 249 249 249 249 249 248 250 251 253 256 259 260 261 262 262 261 261 263 266
254 253 252 252 251 249 250 249 248 248 248 248 247 247 246 247 248 248 249 249 251 252 250 249 249 248 249 251 251 251 250 251 253 256 258 260 261 262 263 262 262 263 264
254 253 253 253 252 251 251 249 248 249 250 250 249 249 248 248 249 250 250 250 250 251 252 251 251 250 251 252 252 252 252 253 254 256 258 261 263 264 264 265 265 265 266
256 255 254 254 254 253 252 250 250 250 251 250 251 251 251 251 251 250 250 250 250 251 252 252 252 252 252 253 253 252 253 254 255 257 259 260 261 263 264 265 265 264 265
257 256 255 254 254 254 252 251 252 252 250 250 252 253 253 253 253 252 252 251 251 251 251 252 252 252 252 254 253 254 254 255 256 257 259 260 261 262 263 264 264 264 264
257 257 256 255 254 254 253 252 252 251 251 252 253 254 254 255 254 254 253 253 252 252 252 252 252 252 253 254 254 254 255 254 255 257 259 260 261 262 261 263 264 264 264
257 256 256 256 255 254 254 253 253 252 252 253 254 255 255 256 256 254 253 253 252 252 253 253 253 253 253 254 254 254 255 256 255 257 259 259 260 261 263 263 264 265 265
257 257 256 256 256 255 254 254 253 254 254 255 255 255 256 256 256 256 254 254 253 253 253 254 254 254 254 255 255 255 256 257 256 256 258 258 259 259 262 263 264 264 264
258 257 255 255 256 257 256 254 254 255 255 256 256 257 257 258 257 257 255 255 255 255 254 254 254 254 254 255 255 255 256 258 258 257 258 259 259 259 261 262 264 263 264
258 257 256 256 257 258 257 255 254 255 256 257 257 257 259 259 259 257 257 256 257 256 255 254 253 254 254 255 255 256 257 257 258 258 258 259 260 260 261 262 263 263 263
258 258 258 257 258 259 258 257 256 255 255 256 258 258 259 260 260 259 257 256 256 257 256 254 253 254 254 254 255 256 257 257 258 259 259 260 260 261 262 263 263 263 264
260 259 259 259 259 259 259 258 257 257 257 258 258 258 260 260 260 259 257 255 255 255 254 254 253 254 255 255 256 256 256 257 259 259 260 260 260 260 262 263 263 264 264
261 260 260 259 259 259 259 259 258 257 258 259 259 259 260 260 260 259 257 255 255 254 254 254 254 253 255 255 255 255 256 257 258 259 259 260 260 261 262 263 264 265 267
264 263 262 261 260 260 259 259 258 258 259 260 261 261 260 260 260 259 257 255 254 254 254 254 254 253 254 254 254 256 256 257 257 257 259 259 260 261 261 263 264 266 267
266 264 263 263 261 261 260 259 259 260 260 261 261 261 263 261 260 259 258 256 254 255 255 254 255 255 255 255 255 256 257 257 257 258 259 260 260 260 261 264 265 266 267
267 266 263 262 262 262 262 261 261 261 261 262 262 262 263 262 260 259 258 256 255 255 254 254 254 256 256 255 255 257 258 259 257 257 259 260 260 261 263 264 265 266 267
268 267 265 264 263 262 263 263 262 261 262 263 263 263 263 263 261 260 258 256 255 255 255 255 254 255 256 256 257 257 258 259 259 258 258 259 260 261 262 264 265 266 267
270 268 266 265 264 263 262 263 263 263 262 263 263 264 264 263 263 260 259 257 256 255 255 256 257 256 256 256 257 257 258 259 259 260 260 260 261 262 263 265 265 266 267